Simultaneous Nadir Overpasses (SNOs) Predictions

Prediction of SNOs between AQUA and NOAA-19 Satellite Orbit:

Table of predicted SNOs for the next 14.0 days since TLE Epoch: 9/18/2020
Index Date (AQUA) Time (AQUA) Lat,Lon (AQUA) SZA (AQUA ) Date (NOAA-19) Time (NOAA-19) Lat,Lon (NOAA-19) SZA (NOAA-19 ) Distance(km) Time Diff (sec)
1 09/20/2020 00:05:58 -79.55, -28.51 100.48 09/20/2020 00:05:40 -79.52, -28.42 100.51 3.41 18
2 09/22/2020 05:39:41 79.52, 68.26 80.33 09/22/2020 05:39:00 79.52, 68.33 80.34 1.50 41
3 09/22/2020 06:29:08 -79.53,-124.22 99.64 09/22/2020 06:29:55 -79.54,-124.22 99.65 0.35 47
4 09/24/2020 11:13:24 -79.49, 165.01 98.86 09/24/2020 11:12:11 -79.51, 165.03 98.82 2.33 73
5 09/24/2020 12:02:51 79.51, -27.50 81.19 09/24/2020 12:03:15 79.53, -27.56 81.20 2.19 24
6 09/26/2020 17:36:35 -79.52, 69.00 97.95 09/26/2020 17:36:27 -79.50, 68.93 97.97 2.96 8
7 09/28/2020 23:10:18 79.51, 165.63 82.89 09/28/2020 23:09:46 79.49, 165.67 82.88 2.13 32
8 09/28/2020 23:59:45 -79.52, -26.78 97.09 09/29/2020 00:00:42 -79.51, -26.89 97.11 2.31 57
9 10/01/2020 04:44:01 -79.48, -97.61 96.30 10/01/2020 04:42:58 -79.48, -97.65 96.28 0.70 63
